| time (UTC) | temp F | wind direction | speed knots | gust knots | rain 1hr in | rain 24hr in | rain mn in | humidity % | barometer mb |
| 20260906233525 | 93 | 171 | 7.0 | 17.4 | 0.00 | 0.00 | 0.00 | 20 | 1017.5 |
| 20260906232551 | 95 | 186 | 6.1 | 13.0 | 0.00 | 0.00 | 0.00 | 20 | 1017.6 |
| 20260906231524 | 95 | 141 | 1.7 | 2.6 | 0.00 | 0.00 | 0.00 | 19 | 1017.6 |
| 20260906230551 | 93 | 132 | 2.6 | 8.7 | 0.00 | 0.00 | 0.00 | 20 | 1017.6 |
| 20260906225544 | 93 | 170 | 9.6 | 20.0 | 0.00 | 0.00 | 0.00 | 19 | 1017.6 |
| 20260906224553 | 93 | 171 | 4.3 | 13.0 | 0.00 | 0.00 | 0.00 | 19 | 1017.6 |
| 20260906223523 | 94 | 199 | 13.0 | 26.1 | 0.00 | 0.00 | 0.00 | 19 | 1017.6 |
| 20260906222532 | 94 | 190 | 7.0 | 17.4 | 0.00 | 0.00 | 0.00 | 19 | 1017.8 |
| 20260906221523 | 94 | 167 | 3.5 | 8.7 | 0.00 | 0.00 | 0.00 | 19 | 1017.9 |
| 20260906220532 | 94 | 226 | 7.0 | 13.0 | 0.00 | 0.00 | 0.00 | 19 | 1018.0 |
| 20260906215543 | 94 | 201 | 7.8 | 15.6 | 0.00 | 0.00 | 0.00 | 19 | 1018.1 |
| 20260906214532 | 96 | 205 | 3.5 | 8.7 | 0.00 | 0.00 | 0.00 | 18 | 1018.4 |
| 20260906213525 | 96 | 213 | 5.2 | 15.6 | 0.00 | 0.00 | 0.00 | 17 | 1018.7 |
| 20260906212552 | 93 | 8 | 7.0 | 15.6 | 0.00 | 0.00 | 0.00 | 18 | 1018.9 |
| 20260906211524 | 95 | 113 | 2.6 | 8.7 | 0.00 | 0.00 | 0.00 | 18 | 1019.1 |
| 20260906210531 | 96 | 186 | 3.5 | 8.7 | 0.00 | 0.00 | 0.00 | 18 | 1019.2 |
| 20260906205524 | 94 | 221 | 5.2 | 11.3 | 0.00 | 0.00 | 0.00 | 18 | 1019.3 |
| 20260906204531 | 93 | 241 | 6.1 | 13.0 | 0.00 | 0.00 | 0.00 | 18 | 1019.5 |
| 20260906203524 | 92 | 283 | 7.8 | 15.6 | 0.00 | 0.00 | 0.00 | 18 | 1019.6 |
| 20260906202533 | 94 | 241 | 5.2 | 15.6 | 0.00 | 0.00 | 0.00 | 17 | 1019.7 |
| 20260906201523 | 93 | 193 | 5.2 | 11.3 | 0.00 | 0.00 | 0.00 | 18 | 1019.9 |
| 20260906200532 | 93 | 220 | 4.3 | 11.3 | 0.00 | 0.00 | 0.00 | 18 | 1020.0 |
| 20260906195543 | 93 | 275 | 6.1 | 11.3 | 0.00 | 0.00 | 0.00 | 18 | 1020.0 |
| 20260906194532 | 95 | 203 | 4.3 | 13.0 | 0.00 | 0.00 | 0.00 | 17 | 1020.2 |
| 20260906193523 | 93 | 210 | 2.6 | 11.3 | 0.00 | 0.00 | 0.00 | 18 | 1020.3 |
| 20260906192552 | 92 | 276 | 6.1 | 11.3 | 0.00 | 0.00 | 0.00 | 18 | 1020.4 |
| 20260906191525 | 93 | 181 | 4.3 | 11.3 | 0.00 | 0.00 | 0.00 | 18 | 1020.6 |
| 20260906190532 | 93 | 218 | 5.2 | 17.4 | 0.00 | 0.00 | 0.00 | 18 | 1020.7 |
| 20260906185524 | 92 | 54 | 3.5 | 13.0 | 0.00 | 0.00 | 0.00 | 19 | 1020.9 |
| 20260906184531 | 92 | 218 | 3.5 | 11.3 | 0.00 | 0.00 | 0.00 | 20 | 1021.0 |
| 20260906183525 | 92 | 176 | 3.5 | 11.3 | 0.00 | 0.00 | 0.00 | 19 | 1021.2 |
| 20260906182531 | 93 | 194 | 2.6 | 7.0 | 0.00 | 0.00 | 0.00 | 19 | 1021.4 |
| 20260906181524 | 89 | 353 | 5.2 | 8.7 | 0.00 | 0.00 | 0.00 | 22 | 1021.7 |
| 20260906180531 | 90 | 227 | 3.5 | 8.7 | 0.00 | 0.00 | 0.00 | 23 | 1021.8 |
| 20260906175524 | 89 | 232 | 3.5 | 8.7 | 0.00 | 0.00 | 0.00 | 26 | 1021.9 |
| 20260906174533 | 89 | 265 | 4.3 | 11.3 | 0.00 | 0.00 | 0.00 | 26 | 1022.0 |
| 20260906173524 | 86 | 288 | 5.2 | 11.3 | 0.00 | 0.00 | 0.00 | 29 | 1022.1 |
| 20260906172532 | 86 | 267 | 3.5 | 8.7 | 0.00 | 0.00 | 0.00 | 30 | 1022.2 |
| 20260906171539 | 85 | 357 | 3.5 | 8.7 | 0.00 | 0.00 | 0.00 | 31 | 1022.3 |
| 20260906170532 | 85 | 281 | 4.3 | 11.3 | 0.00 | 0.00 | 0.00 | 32 | 1022.3 |
| 20260906165525 | 84 | 330 | 2.6 | 7.0 | 0.00 | 0.00 | 0.00 | 32 | 1022.4 |
| 20260906164632 | 81 | 327 | 2.6 | 7.0 | 0.00 | 0.00 | 0.00 | 33 | 1022.6 |
| 20260906163525 | 81 | 42 | 2.6 | 7.0 | 0.00 | 0.00 | 0.00 | 34 | 1022.6 |
| 20260906162532 | 80 | 84 | 1.7 | 7.0 | 0.00 | 0.00 | 0.00 | 35 | 1022.6 |
| 20260906161525 | 79 | 51 | 2.6 | 4.3 | 0.00 | 0.00 | 0.00 | 34 | 1022.5 |
| 20260906160532 | 79 | 64 | 1.7 | 7.0 | 0.00 | 0.00 | 0.00 | 35 | 1022.5 |
| 20260906155524 | 78 | 84 | 2.6 | 7.0 | 0.00 | 0.00 | 0.00 | 36 | 1022.5 |
| 20260906154552 | 77 | 40 | 3.5 | 8.7 | 0.00 | 0.00 | 0.00 | 37 | 1022.5 |
| 20260906153600 | 76 | 352 | 5.2 | 11.3 | 0.00 | 0.00 | 0.00 | 37 | 1022.6 |
| 20260906152533 | 76 | 1 | 3.5 | 11.3 | 0.00 | 0.00 | 0.00 | 37 | 1022.5 |
| 20260906151524 | 75 | 62 | 4.3 | 11.3 | 0.00 | 0.00 | 0.00 | 38 | 1022.5 |
| 20260906150533 | 76 | 354 | 6.1 | 13.0 | 0.00 | 0.00 | 0.00 | 37 | 1022.5 |
| 20260906145524 | 75 | 26 | 4.3 | 8.7 | 0.00 | 0.00 | 0.00 | 37 | 1022.5 |
| 20260906144533 | 74 | 346 | 5.2 | 13.0 | 0.00 | 0.00 | 0.00 | 38 | 1022.4 |
| 20260906143523 | 72 | 352 | 7.8 | 17.4 | 0.00 | 0.00 | 0.00 | 39 | 1022.4 |
| 20260906142532 | 72 | 21 | 6.1 | 13.0 | 0.00 | 0.00 | 0.00 | 40 | 1022.3 |
| 20260906141545 | 72 | 17 | 6.1 | 13.0 | 0.00 | 0.00 | 0.00 | 42 | 1022.2 |
| 20260906140532 | 71 | 33 | 3.5 | 8.7 | 0.00 | 0.00 | 0.00 | 41 | 1022.2 |
| 20260906135525 | 72 | 45 | 2.6 | 8.7 | 0.00 | 0.00 | 0.00 | 40 | 1022.0 |
| 20260906134552 | 71 | 87 | 2.6 | 7.0 | 0.00 | 0.00 | 0.00 | 41 | 1022.0 |
| 20260906133524 | 71 | 57 | 4.3 | 8.7 | 0.00 | 0.00 | 0.00 | 40 | 1021.9 |
| 20260906132531 | 70 | 40 | 6.1 | 13.0 | 0.00 | 0.00 | 0.00 | 41 | 1021.9 |
| 20260906131544 | 70 | 75 | 6.1 | 13.0 | 0.00 | 0.00 | 0.00 | 41 | 1021.9 |
| 20260906130517 | 70 | 48 | 6.1 | 13.0 | 0.00 | 0.00 | 0.00 | 41 | 1021.8 |
| 20260906125524 | 70 | 356 | 9.6 | 17.4 | 0.00 | 0.00 | 0.00 | 40 | 1021.7 |
| 20260906124517 | 70 | 5 | 7.8 | 13.0 | 0.00 | 0.00 | 0.00 | 40 | 1021.7 |
| 20260906123524 | 70 | 57 | 5.2 | 11.3 | 0.00 | 0.00 | 0.00 | 40 | 1021.6 |
| 20260906122553 | 70 | 10 | 5.2 | 13.0 | 0.00 | 0.00 | 0.00 | 39 | 1021.5 |
| 20260906121524 | 71 | 17 | 7.0 | 13.0 | 0.00 | 0.00 | 0.00 | 39 | 1021.5 |
| 20260906120556 | 71 | 32 | 4.3 | 8.7 | 0.00 | 0.00 | 0.00 | 39 | 1021.5 |
| 20260906115523 | 71 | 54 | 4.3 | 8.7 | 0.00 | 0.00 | 0.00 | 40 | 1021.5 |
| 20260906114532 | 70 | 90 | 2.6 | 7.0 | 0.00 | 0.00 | 0.00 | 41 | 1021.5 |
| 20260906113525 | 70 | 96 | 0.9 | 2.6 | 0.00 | 0.00 | 0.00 | 41 | 1021.5 |
| 20260906112536 | 71 | 92 | 0.9 | 2.6 | 0.00 | 0.00 | 0.00 | 41 | 1021.5 |
| 20260906111525 | 71 | 104 | 1.7 | 2.6 | 0.00 | 0.00 | 0.00 | 40 | 1021.4 |
| 20260906110516 | 71 | 103 | 0.9 | 2.6 | 0.00 | 0.00 | 0.00 | 40 | 1021.4 |
| 20260906105525 | 72 | 105 | 1.7 | 2.6 | 0.00 | 0.00 | 0.00 | 38 | 1021.5 |
| 20260906104515 | 73 | 105 | 2.6 | 4.3 | 0.00 | 0.00 | 0.00 | 37 | 1021.5 |
| 20260906103540 | 73 | 91 | 2.6 | 4.3 | 0.00 | 0.00 | 0.00 | 37 | 1021.4 |
| 20260906102517 | 74 | 82 | 3.5 | 7.0 | 0.00 | 0.00 | 0.00 | 36 | 1021.4 |
| 20260906101525 | 74 | 94 | 2.6 | 4.3 | 0.00 | 0.00 | 0.00 | 36 | 1021.5 |
| 20260906100517 | 74 | 57 | 3.5 | 8.7 | 0.00 | 0.00 | 0.00 | 35 | 1021.4 |
| 20260906095544 | 75 | 24 | 3.5 | 8.7 | 0.00 | 0.00 | 0.00 | 35 | 1021.2 |
| 20260906094517 | 75 | 28 | 4.3 | 8.7 | 0.00 | 0.00 | 0.00 | 35 | 1021.2 |
| 20260906093544 | 75 | 39 | 3.5 | 7.0 | 0.00 | 0.00 | 0.00 | 35 | 1021.1 |
| 20260906092517 | 75 | 75 | 0.9 | 4.3 | 0.00 | 0.00 | 0.00 | 36 | 1021.0 |
| 20260906091544 | 74 | 90 | 1.7 | 4.3 | 0.00 | 0.00 | 0.00 | 38 | 1020.9 |
| 20260906090516 | 73 | 107 | 0.9 | 2.6 | 0.00 | 0.00 | 0.00 | 39 | 1020.8 |
| 20260906085525 | 73 | 102 | 1.7 | 4.3 | 0.00 | 0.00 | 0.00 | 40 | 1020.8 |
| 20260906084516 | 73 | 107 | 2.6 | 7.0 | 0.00 | 0.00 | 0.00 | 40 | 1020.9 |
| 20260906083525 | 73 | 97 | 3.5 | 7.0 | 0.00 | 0.00 | 0.00 | 39 | 1021.0 |
| 20260906082516 | 73 | 90 | 5.2 | 8.7 | 0.00 | 0.00 | 0.00 | 39 | 1021.1 |
| 20260906081541 | 73 | 116 | 4.3 | 8.7 | 0.00 | 0.00 | 0.00 | 39 | 1021.1 |
| 20260906080516 | 73 | 93 | 4.3 | 7.0 | 0.00 | 0.00 | 0.00 | 39 | 1021.2 |
| 20260906075544 | 73 | 92 | 4.3 | 7.0 | 0.00 | 0.00 | 0.00 | 39 | 1021.3 |
| 20260906074517 | 73 | 104 | 3.5 | 7.0 | 0.00 | 0.00 | 0.00 | 39 | 1021.4 |
| 20260906073524 | 74 | 97 | 4.3 | 7.0 | 0.00 | 0.00 | 0.00 | 39 | 1021.4 |
| 20260906072517 | 74 | 110 | 3.5 | 7.0 | 0.00 | 0.00 | 0.00 | 39 | 1021.4 |
| 20260906071524 | 75 | 97 | 4.3 | 8.7 | 0.00 | 0.00 | 0.00 | 39 | 1021.4 |
| 20260906070517 | 75 | 97 | 3.5 | 7.0 | 0.00 | 0.00 | 0.00 | 39 | 1021.4 |
| 20260906065524 | 75 | 106 | 3.5 | 4.3 | 0.00 | 0.00 | 0.00 | 39 | 1021.4 |
| 20260906064517 | 76 | 134 | 3.5 | 8.7 | 0.00 | 0.00 | 0.00 | 37 | 1021.4 |
| 20260906063526 | 75 | 121 | 4.3 | 7.0 | 0.00 | 0.00 | 0.00 | 37 | 1021.4 |
| 20260906062532 | 76 | 124 | 4.3 | 7.0 | 0.00 | 0.00 | 0.00 | 37 | 1021.4 |
| 20260906061525 | 77 | 132 | 2.6 | 7.0 | 0.00 | 0.00 | 0.00 | 36 | 1021.4 |
| 20260906060516 | 77 | 124 | 3.5 | 4.3 | 0.00 | 0.00 | 0.00 | 36 | 1021.2 |
| 20260906055525 | 76 | 124 | 1.7 | 4.3 | 0.00 | 0.00 | 0.00 | 36 | 1021.1 |
| 20260906054516 | 78 | 115 | 0.0 | 2.6 | 0.00 | 0.00 | 0.00 | 35 | 1021.0 |
| 20260906053525 | 79 | 101 | 0.0 | 2.6 | 0.00 | 0.00 | 0.00 | 32 | 1021.0 |
| 20260906052518 | 79 | 107 | 1.7 | 2.6 | 0.00 | 0.00 | 0.00 | 32 | 1021.0 |
| 20260906051524 | 80 | 79 | 1.7 | 4.3 | 0.00 | 0.00 | 0.00 | 31 | 1020.9 |
| 20260906050518 | 81 | 41 | 3.5 | 7.0 | 0.00 | 0.00 | 0.00 | 30 | 1020.9 |
| 20260906045544 | 81 | 32 | 3.5 | 8.7 | 0.00 | 0.00 | 0.00 | 30 | 1020.9 |
| 20260906044517 | 81 | 25 | 6.1 | 13.0 | 0.00 | 0.00 | 0.00 | 29 | 1021.0 |
| 20260906043524 | 80 | 76 | 2.6 | 4.3 | 0.00 | 0.00 | 0.00 | 31 | 1021.0 |
| 20260906042517 | 80 | 75 | 2.6 | 4.3 | 0.00 | 0.00 | 0.00 | 31 | 1020.9 |
| 20260906041546 | 81 | 96 | 1.7 | 4.3 | 0.00 | 0.00 | 0.00 | 31 | 1020.9 |
| 20260906040516 | 81 | 67 | 3.5 | 8.7 | 0.00 | 0.00 | 0.00 | 30 | 1021.0 |
| 20260906035546 | 80 | 80 | 2.6 | 7.0 | 0.00 | 0.00 | 0.00 | 31 | 1021.0 |
| 20260906034537 | 80 | 72 | 4.3 | 8.7 | 0.00 | 0.00 | 0.00 | 31 | 1020.9 |
| 20260906033545 | 81 | 90 | 3.5 | 7.0 | 0.00 | 0.00 | 0.00 | 31 | 1020.9 |
| 20260906032516 | 82 | 16 | 5.2 | 15.6 | 0.00 | 0.00 | 0.00 | 30 | 1020.7 |
| 20260906031525 | 81 | 44 | 2.6 | 11.3 | 0.00 | 0.00 | 0.00 | 31 | 1020.6 |
| 20260906030536 | 82 | 28 | 3.5 | 7.0 | 0.00 | 0.00 | 0.00 | 30 | 1020.5 |
| 20260906025525 | 82 | 42 | 3.5 | 7.0 | 0.00 | 0.00 | 0.00 | 31 | 1020.3 |
| 20260906024518 | 81 | 44 | 1.7 | 7.0 | 0.00 | 0.00 | 0.00 | 33 | 1020.2 |
| 20260906023525 | 81 | 112 | 0.9 | 2.6 | 0.00 | 0.00 | 0.00 | 34 | 1020.1 |
| 20260906022517 | 82 | 106 | 0.0 | 2.6 | 0.00 | 0.00 | 0.00 | 33 | 1020.0 |
| 20260906021524 | 83 | 0.0 | 0.0 | 0.00 | 0.00 | 0.00 | 32 | 1019.9 | |
| 20260906020517 | 84 | 58 | 1.7 | 4.3 | 0.00 | 0.00 | 0.00 | 31 | 1019.8 |
| 20260906015526 | 85 | 59 | 2.6 | 4.3 | 0.00 | 0.00 | 0.00 | 30 | 1019.6 |
| 20260906014517 | 85 | 57 | 2.6 | 7.0 | 0.00 | 0.00 | 0.00 | 30 | 1019.6 |
| 20260906013526 | 86 | 351 | 4.3 | 8.7 | 0.00 | 0.00 | 0.00 | 29 | 1019.6 |
| 20260906012516 | 86 | 347 | 3.5 | 8.7 | 0.00 | 0.00 | 0.00 | 29 | 1019.6 |
| 20260906011526 | 87 | 325 | 3.5 | 13.0 | 0.00 | 0.00 | 0.00 | 29 | 1019.6 |
| 20260906010516 | 87 | 27 | 3.5 | 7.0 | 0.00 | 0.00 | 0.00 | 28 | 1019.5 |
| 20260906005525 | 87 | 249 | 0.9 | 4.3 | 0.00 | 0.00 | 0.00 | 28 | 1019.5 |
| 20260906004558 | 88 | 266 | 5.2 | 13.0 | 0.00 | 0.00 | 0.00 | 28 | 1019.6 |
| 20260906003525 | 88 | 264 | 5.2 | 13.0 | 0.00 | 0.00 | 0.00 | 28 | 1019.6 |
| 20260906002518 | 88 | 355 | 2.6 | 7.0 | 0.00 | 0.00 | 0.00 | 28 | 1019.6 |
| 20260906001525 | 89 | 173 | 2.6 | 8.7 | 0.00 | 0.00 | 0.00 | 28 | 1019.5 |
| 20260906000538 | 89 | 270 | 6.1 | 15.6 | 0.00 | 0.00 | 0.00 | 27 | 1019.5 |
| 20260905235544 | 91 | 134 | 2.6 | 8.7 | 0.00 | 0.00 | 0.00 | 26 | 1019.4 |
| 20260905234517 | 90 | 124 | 1.7 | 4.3 | 0.00 | 0.00 | 0.00 | 26 | 1019.4 |